Ketchikan, AK

10:08 PM AKDT on October 15, 2018 (GMT -0800)
Ketchikan International

Weather History for PAKT - May, 2018

Change the Weather History Date:

Saturday, May 5, 2018

  Actual Average Record
Temperature  
Mean Temperature 49 °F -  
Max Temperature 55 °F 54 °F 67 °F (1956)
Min Temperature 45 °F 39 °F 28 °F (2003)
Degree Days  
Heating Degree Days 16    
Moisture  
Dew Point 48 °F    
Average Humidity 97    
Maximum Humidity 100    
Minimum Humidity 93    
Precipitation  
Precipitation 0.32 in - - ()
Sea Level Pressure  
Sea Level Pressure 30.26 in    
Wind  
Wind Speed 9 mph (SE)    
Max Wind Speed 16 mph    
Max Gust Speed -    
Visibility 4 miles    
Events Fog , Rain    
Averages and records for this station are not official NWS values.
T = Trace of Precipitation, MM = Missing Value Source: NWS Daily Summary

Daily Weather History Graph

Daily Weather History Graph

Search for Another Location

Airport or City:

Astronomy

May. 05, 2018 Rise Set
Actual Time 4:56 AM AKDT 8:31 PM AKDT
Civil Twilight 4:11 AM AKDT 9:17 PM AKDT
Nautical Twilight 3:09 AM AKDT 10:20 PM AKDT
Astronomical Twilight 1:17 AM AKDT 12:27 AM AKDT
Moon 1:11 AM AKDT (5/5) 9:04 AM AKDT (5/5)
Length of Visible Light 17h 05m
Length of Day
15h 35m
Waning Gibbous, 71% of the Moon is Illuminated
May 5
Waning Gibbous
May 7
Last Quarter
May 15
New
May 21
First Quarter
May 29
Full

Hourly Weather History & Observations

Time (AKDT) Temp. Windchill Dew Point Humidity Pressure Visibility Wind Dir Wind Speed Gust Speed Precip Events Conditions
12:03 AM 48.9 °F - 48.0 °F 97% 30.26 in 1.8 mi SSE 8.1 mph - 0.02 in Rain Light Rain
12:11 AM 48.9 °F - 48.0 °F 97% 30.26 in 2.0 mi SE 8.1 mph - 0.03 in Rain Light Rain
12:27 AM 48.9 °F - 48.0 °F 97% 30.26 in 2.0 mi SE 8.1 mph - 0.05 in Rain Light Rain
12:29 AM 48.9 °F - 48.0 °F 97% 30.26 in 1.8 mi SE 9.2 mph - 0.05 in Rain Light Rain
12:46 AM 48.9 °F - 48.0 °F 97% 30.26 in 2.0 mi SE 10.4 mph - 0.08 in Rain Light Rain
12:53 AM 48.9 °F - 48.0 °F 97% 30.27 in 2.0 mi SE 9.2 mph - 0.09 in Rain Light Rain
1:14 AM 48.9 °F - 48.0 °F 97% 30.26 in 1.8 mi SE 10.4 mph - 0.03 in Rain Light Rain
1:29 AM 48.9 °F - 48.0 °F 97% 30.26 in 2.0 mi SSE 10.4 mph - 0.05 in Rain Light Rain
1:53 AM 48.9 °F - 48.0 °F 97% 30.26 in 2.0 mi SSE 10.4 mph - 0.08 in Rain Light Rain
1:58 AM 48.9 °F - 48.0 °F 97% 30.26 in 1.8 mi SE 11.5 mph - 0.01 in Rain Light Rain
2:06 AM 48.9 °F - 48.0 °F 97% 30.26 in 2.0 mi SE 11.5 mph - 0.02 in Rain Light Rain
2:17 AM 48.9 °F - 48.0 °F 97% 30.26 in 2.5 mi SE 11.5 mph - 0.03 in Rain Light Rain
2:53 AM 48.9 °F - 48.0 °F 97% 30.26 in 2.5 mi SE 11.5 mph - 0.05 in Rain Light Rain
3:01 AM 48.9 °F - 48.0 °F 97% 30.26 in 4.0 mi SSE 10.4 mph - 0.01 in Rain Light Rain
3:22 AM 48.9 °F - 48.0 °F 97% 30.26 in 2.5 mi SSE 11.5 mph - 0.02 in Rain Light Rain
3:53 AM 48.9 °F - 48.0 °F 97% 30.26 in 2.0 mi SE 13.8 mph - 0.03 in Rain Light Rain
4:23 AM 48.9 °F - 48.0 °F 97% 30.25 in 1.8 mi SSE 10.4 mph - 0.01 in Rain Light Rain
4:29 AM 48.9 °F - 48.0 °F 97% 30.25 in 2.0 mi SSE 10.4 mph - 0.02 in Rain Light Rain
4:53 AM 48.9 °F - 48.0 °F 97% 30.26 in 2.5 mi SSE 12.7 mph - 0.03 in Rain Light Rain
5:32 AM 48.9 °F - 48.0 °F 97% 30.25 in 1.2 mi SE 15.0 mph - 0.01 in   Overcast
5:53 AM 48.9 °F - 48.0 °F 97% 30.25 in 1.0 mi SE 12.7 mph - 0.02 in Rain Light Rain
5:58 AM 48.2 °F - 48.2 °F 100% 30.25 in 2.0 mi SSE 12.7 mph - N/A Rain Light Rain
6:53 AM 50.0 °F - 48.2 °F 94% 30.26 in 3.0 mi SSE 10.4 mph - N/A   Overcast
7:53 AM 50.0 °F - 48.2 °F 94% 30.27 in 2.0 mi SE 12.7 mph - N/A Rain Light Rain
8:53 AM 50.0 °F - 48.2 °F 94% 30.27 in 2.0 mi SE 16.1 mph - N/A Rain Light Rain
9:53 AM 50.0 °F - 48.2 °F 94% 30.28 in 1.0 mi SE 15.0 mph - N/A Rain Light Rain
10:53 AM 51.1 °F - 50.0 °F 96% 30.29 in 3.0 mi SE 12.7 mph - 0.02 in   Overcast
11:53 AM 51.8 °F - 51.8 °F 100% 30.28 in 3.0 mi SE 16.1 mph - N/A   Overcast
12:53 PM 51.8 °F - 51.8 °F 100% 30.28 in 3.0 mi SE 15.0 mph - N/A   Overcast
1:00 PM 51.8 °F - 51.8 °F 100% 30.28 in 3.0 mi ESE 16.1 mph - N/A   Overcast
1:53 PM 51.8 °F - 50.0 °F 94% 30.29 in 3.0 mi SE 12.7 mph - N/A   Overcast
2:53 PM 51.8 °F - 51.8 °F 100% 30.29 in 3.0 mi ESE 13.8 mph - N/A   Overcast
3:53 PM 51.8 °F - 51.8 °F 100% 30.28 in 3.0 mi ESE 10.4 mph - N/A   Overcast
4:53 PM 53.6 °F - 51.8 °F 94% 30.27 in 10.0 mi ESE 8.1 mph - N/A   Overcast
5:53 PM 53.6 °F - 51.8 °F 94% 30.26 in 10.0 mi SE 6.9 mph - N/A   Overcast
6:53 PM 53.6 °F - 51.8 °F 94% 30.24 in 10.0 mi ESE 6.9 mph - N/A   Mostly Cloudy
7:53 PM 52.0 °F - 50.0 °F 93% 30.24 in 10.0 mi Calm Calm - N/A   Scattered Clouds
8:53 PM 48.9 °F - 46.9 °F 93% 30.24 in 10.0 mi Calm Calm - N/A   Partly Cloudy
9:53 PM 45.0 °F 43.5 °F 44.1 °F 97% 30.24 in 10.0 mi Variable 3.5 mph - N/A   Clear
10:15 PM 46.0 °F 44.8 °F 45.0 °F 96% 30.24 in 2.5 mi WNW 3.5 mph - N/A   Scattered Clouds
10:30 PM 46.0 °F - 45.0 °F 96% 30.24 in 10.0 mi Calm Calm - N/A   Mostly Cloudy
10:44 PM 46.0 °F - 46.0 °F 100% 30.23 in 4.0 mi Calm Calm - N/A   Mostly Cloudy
10:49 PM 46.4 °F - 46.4 °F 100% 30.23 in 1.8 mi Calm Calm - N/A   Overcast
10:53 PM 46.9 °F - 46.0 °F 97% 30.24 in 1.2 mi Calm Calm - N/A   Overcast
11:07 PM 45.0 °F - 45.0 °F 100% 30.23 in 0.5 mi Calm Calm - N/A Fog Fog
11:20 PM 45.0 °F 43.5 °F 44.1 °F 97% 30.23 in 2.5 mi NW 3.5 mph - N/A   Mostly Cloudy
11:23 PM 45.0 °F 41.8 °F 44.1 °F 97% 30.23 in 7.0 mi WNW 5.8 mph - N/A   Scattered Clouds
11:53 PM 48.0 °F - 46.9 °F 96% 30.23 in 10.0 mi NW 6.9 mph - N/A   Clear